Location: Wien
(48.2082°N, 16.3738°E)
Time: 00:20:47
(UTC+02:00)

NOAA 19 - Visible Passes

Search period start: 25 April 2024 00:00
Search period end: 05 May 2024 00:00
Orbit: 838 x 860 km, 99.1° (Epoch: 24 April)

Date Brightness Start Highest point End Pass type
(mag) Time Alt. Az. Time Alt. Az. Time Alt. Az.
25 Apr 6.0 20:24:06 10° SE 20:28:58 35° ENE 20:33:52 10° N visible
25 Apr 6.3 22:04:30 10° SSW 22:09:33 40° W 22:14:41 10° NNW visible
26 Apr 5.9 21:51:59 10° S 21:57:12 51° W 22:02:31 10° NNW visible
27 Apr 5.6 21:39:29 10° S 21:44:52 64° WSW 21:50:18 10° NNW visible
28 Apr 5.3 21:27:06 10° SSE 21:32:34 79° WSW 21:38:03 10° NNW visible
28 Apr 7.7 23:11:54 10° WSW 23:14:04 12° W 23:16:15 10° WNW visible
29 Apr 5.2 21:14:49 10° SSE 21:20:17 83° ENE 21:25:46 10° NNW visible
29 Apr 7.6 22:58:22 10° SW 23:01:36 16° W 23:04:51 10° NW visible
30 Apr 5.3 21:02:37 10° SSE 21:08:00 67° ENE 21:13:26 10° N visible
30 Apr 7.3 22:45:13 10° SW 22:49:09 20° W 22:53:06 10° NW visible
01 May 5.5 20:50:29 10° SE 20:55:46 54° ENE 21:01:05 10° N visible
01 May 7.0 22:32:18 10° SSW 22:36:43 25° W 22:41:11 10° NW visible
02 May 5.7 20:38:26 10° SE 20:43:33 44° ENE 20:48:41 10° N visible
02 May 6.7 22:19:31 10° SSW 22:24:19 31° W 22:29:09 10° NNW visible
03 May 6.3 22:06:52 10° SSW 22:11:56 39° W 22:17:02 10° NNW visible
04 May 6.0 21:54:18 10° S 21:59:35 49° W 22:04:52 10° NNW visible
